www.pogodaiklimat.ru

Погода и климат >> Архив погоды >> Россия >> Краснодарский край >> Краснодар


АРХИВ ПОГОДЫ в Краснодаре

Время (UTC), дата Ветер
(напр.,м/с)
 
Видим.   Явления Облачность Т
(С)
Тd
(С)
f
(%)
Тe
(С)
Тes
(С)
Комфортность P
(гПа)
Po
(гПа)
Тmin
(С)
Tmax
(С)
R
(мм)
R24
(мм)
S
(см)
09 18.06 В 9 27 км 10/0
[Ac trans Ci]
+25.0 +13.8 50 +27 +29 жарко 1009.5 1006.1
12 18.06 СВ 1 10 км 10/5 1000 м
[Sc Ac trans Ci fib]
+25.4 +12.8 46 +27 +31 жарко 1009.7 1006.3
15 18.06 ЮВ 1 10 км {ливн. осадки} 10/10 600 м
[Sc]
+23.0 +16.3 66 +28 +28 душно 1010.2 1006.8 +27.0 0.2
18 18.06 штиль 0 10 км {ливн. осадки} 10/5 1000 м
[Sc Ac trans Ci fib]
+20.8 +16.4 76 +24 +24 комфорт 1010.7 1007.3
21 18.06 СВ 1 10 км 10/5 1000 м
[Sc Ac und]
+19.5 +16.2 81 +23 +23 комфорт 1010.9 1007.5
00 19.06 В 2 10 км 10/0
[Ac trans Ci]
+19.0 +13.4 70 +21 +21 комфорт 1009.4 1006.5
03 19.06 В 2 10 км 10/5 1000 м
[Sc Ac trans Ci fib]
+18.3 +12.4 68 +19 +19 по сезону 1010.9 1007.4 +18.1 0.1
06 19.06 В 1 10 км 10/8 1000 м
[Sc Ac und]
+18.7 +15.3 81 +21 +21 комфорт 1010.7 1007.3 +18.0
09 19.06 В 2 10 км 10/8 1000 м
[Sc Ac und]
+21.0 +14.9 68 +25 +26 комфорт 1010.9 1007.5
12 19.06 В 2 10 км 9/8 600 м
[Cb cap Ac trans]
+23.8 +16.4 63 +27 +29 жарко 1010.0 1006.6
15 19.06 ЮВ 1 10 км 8/5 1000 м
[Cb cap Ac trans]
+24.2 +15.4 58 +27 +28 жарко 1009.6 1006.2 +25.0
18 19.06 В 1 10 км 10/9 1000 м
[Sc Ac und]
+21.6 +15.1 67 +25 +25 комфорт 1009.6 1006.2
21 19.06 С 2 10 км 9/9 600 м
[Cb cap]
+17.9 +14.9 83 +18 +18 прохладно 1008.5 1005.0
00 20.06 СВ 1 10 км в посл. час ливневой дождь 10/10 600 м
[Cb cap]
+18.5 +16.4 88 +20 +20 тепло 1008.6 1005.2
03 20.06 В 1 10 км слабый ливневой дождь 10/10 600 м
[Cb cap]
+17.9 +16.4 91 +19 +19 по сезону 1008.2 1004.7 +17.9 0.4
06 20.06 ЮВ 1 10 км в посл. час ливневой дождь 10/10 1000 м
[Sc Ac und]
+19.4 +16.4 83 +22 +22 комфорт 1008.6 1005.2
09 20.06 ЮЗ 1 10 км слабый ливневой дождь 10/10 1000 м
[Sc Ac und]
+19.9 +16.8 82 +24 +24 комфорт 1009.4 1006.0
12 20.06 ЮЗ 1 10 км слабый ливневой дождь 10/10 600 м
[Cb cap]
+19.3 +16.6 84 +22 +22 комфорт 1010.0 1006.6
15 20.06 ЮВ 1 10 км в посл. час ливневой дождь 10/10 1000 м
[Sc]
+19.7 +16.7 83 +23 +23 комфорт 1009.5 1006.1 +20.6 0.3
18 20.06 ЮЗ 1 10 км 8/8 1000 м
[Sc diur, vesp Ac As]
+18.1 +16.1 88 +19 +19 прохладно 1010.6 1007.2
21 20.06 10 км н/о +16.2 +15.5 96 +16 +16 холодно 1010.6 1007.1
00 21.06 З 1 10 км 5/0
[Ac trans]
+15.6 +15.2 97 +16 +16 по сезону 1010.5 1007.0
03 21.06 З 1 10 км ясно +15.0 +14.7 98 +15 +17 холодно 1010.5 1007.0 +15.0 0.1
06 21.06 Ю 2 10 км ясно +22.2 +16.1 68 +26 +37 душно 1009.9 1006.5
09 21.06 З 1 10 км ясно +27.2 +13.5 43 +29 +52 опасность
солнечного
удара
1009.4 1006.0
12 21.06 З 2 10 км 4/4 1000 м
[Cu med, cong]
+29.6 +13.7 38 +31 +40 жарко 1008.8 1005.5
15 21.06 З 3
{10}
10 км 4/3 600 м
[Cb cap Ac trans Ci fib]
+28.0 +14.9 45 +31 +32 душно 1008.7 1005.3 +30.4
18 21.06 В 2 10 км 3/0
[Ac trans]
+23.7 +16.5 64 +27 +27 жарко 1009.5 1006.1
21 21.06 ЮЗ 1 10 км ясно +19.0 +15.8 82 +21 +21 комфорт 1009.5 1006.1
00 22.06 ЮЗ 2 10 км ясно +18.6 +15.4 82 +20 +20 тепло 1009.1 1005.7
03 22.06 ЮЗ 1 10 км 3/0
[Ac lent Cc]
+19.4 +16.2 82 +22 +23 комфорт 1009.2 1005.8 +18.3
06 22.06 ЮЗ 2 10 км 9/8 1000 м
[Sc Ac trans]
+22.7 +18.1 75 +28 +30 душно 1012.3 1008.9
09 22.06 З 3 4000 м слабый ливневой дождь {гроза} 10/8 1000 м
[Cb cap Ac und]
+17.3 +16.1 93 +17 +18 очень
холодно
1014.2 1010.7
12 22.06 З 5 10 км {гроза, ливн. осадки} 10/5 600 м
[Cb cap Ci fib]
+23.7 +16.5 64 +27 +30 жарко 1013.7 1010.3
15 22.06 З 3 10 км в посл. час ливневой дождь {гроза} 10/8 1000 м
[Cb cap Ac trans Ci fib]
+18.8 +17.4 92 +20 +20 холодно 1014.7 1011.3 +25.1 8
18 22.06 ЮЗ 2 10 км {гроза, ливн. осадки} 10/0
[Ci fib]
+18.3 +16.1 87 +19 +19 прохладно 1016.0 1012.5
21 22.06 штиль 0 10 км ясно +16.7 +15.3 91 +17 +17 прохладно 1016.8 1013.3
00 23.06 штиль 0 4000 м дымка ясно +15.1 +14.0 93 +15 +15 прохладно 1016.5 1013.0
03 23.06 ЮЗ 1 4000 м дымка 10/0
[Ac trans Ci fib]
+16.1 +15.2 94 +17 +18 прохладно 1016.3 1012.8 +14.0
06 23.06 ЮЗ 2 10 км 8/3 1000 м
[Cu med, cong Ac trans]
+22.2 +19.0 82 +28 +32 душно 1016.8 1013.4
09 23.06 ЮВ 4 10 км 9/3 1000 м
[Cu med, cong Ac trans Ci fib]
+26.0 +16.9 57 +30 +35 душно 1016.0 1012.6
12 23.06 ЮВ 3
{10}
4000 м гроза, ливневой дождь 10/10 600 м
[Cb cap]
+18.0 +16.7 92 +18 +18 очень
холодно
1016.9 1013.4
15 23.06 Ю 5 10 км {гроза, ливн. осадки} 5/3
[Cu med, cong Ac trans]
+24.6 +18.1 67 +29 +30 душно 1015.2 1011.8 +26.0 17
18 23.06 ЮЗ 4 10 км {гроза, ливн. осадки} 3/0
[Ac trans]
+21.0 +17.6 81 +25 +25 комфорт 1015.6 1012.2
21 23.06 ЮЗ 2 10 км ясно +19.5 +16.9 85 +22 +22 комфорт 1014.1 1010.7
00 24.06 ЮЗ 4 10 км ясно +20.3 +17.0 81 +23 +23 комфорт 1012.8 1009.4
03 24.06 Ю 5
{10}
10 км 10/3 1000 м
[Cb cap Ac trans Ci fib]
+21.1 +16.4 75 +25 +25 комфорт 1011.9 1008.5 +19.5
06 24.06 ЮЗ 5 10 км 8/8 1000 м
[Sc diur, vesp Ac trans Ci fib]
+23.6 +16.8 66 +27 +28 жарко 1011.8 1008.4
09 24.06 ЮЗ 7-15
{17}
10 км ясно +25.3 +16.5 58 +29 +34 душно 1011.7 1008.3
12 24.06 З 9-12
{16}
10 км 8/8 1000 м
[Sc diur, vesp Ac As Ci fib]
+25.4 +15.9 56 +29 +29 душно 1012.1 1008.7
15 24.06 Ю 7-10
{13}
10 км 10/8 1000 м
[Cb cap Ac As]
+23.5 +17.0 67 +27 +27 душно 1012.0 1008.6 +25.7
18 24.06 ЮЗ 3
{10}
10 км 10/9 1000 м
[Sc diur, vesp Ac As]
+21.9 +16.9 73 +26 +26 душно 1012.3 1008.9
21 24.06 ЮЗ 3 10 км 10/0
[Ac As Ci]
+20.2 +15.1 72 +23 +23 комфорт 1010.2 1006.7
00 25.06 Ю 1 н/о н/о +17.1 +15.5 90 +18 +18 по сезону 1010.6 1007.1
03 25.06 ЮЗ 2 10 км 10/10 1000 м
[Cb cap Ac As]
+21.6 +18.6 83 +26 +26 душно 1011.6 1008.0 +19.7
06 25.06 З 1 10 км 8/8 600 м
[Cb cap]
+21.8 +18.1 80 +27 +29 душно 1016.1 1012.7

 

Местоположение метеостанции Краснодар (Краснодарский край, Россия): широта 45.05 долгота 39.03 высота над уровнем моря 29 м.

В архиве по умолчанию представлена погода в Краснодаре за последнюю неделю. Архивные данные за месяц целиком и за предыдущие месяцы, начиная с января 2011 года, Вы можете получить, выбрав интересующий диапазон дат из раскрывающегося списка и нажав кнопку "Ввод!".

Внимание! Время в таблицах - всемирное. Для получения местного времени необходимо прибавить поправку, которая в Краснодаре равна 3 ч.

Смотрите также архив погоды в соседних городах и на ближайших метеорологических станциях:

Погода в Горячем Ключе (Краснодарский край, Россия) (47 км)
Погода в Усть-Лабинске (Краснодарский край, Россия) (58 км)
Погода в Кореновске (Краснодарский край, Россия) (59 км)
Погода в Тимашевске (Краснодарский край, Россия) (65 км)
Погода в Славянске-на-Кубани (Краснодарский край, Россия) (76 км)
Погода в Белореченске (Краснодарский край, Россия) (76 км)
Погода в Крымске (Краснодарский край, Россия) (82 км)
Погода в Джубге (Краснодарский край, Россия) (84 км)
Погода в Горном (Краснодарский край, Россия) (88 км)
Погода в Геленджике (Краснодарский край, Россия) (92 км)

Пояснения к столбцам:

Ветер - указаны скорость ветра в м/с - средняя за 10 мин, порывы в срок и между сроками (в фигурных скобках) и направление, откуда дует ветер: С - северный, СВ - северо-восточный, В - восточный, ЮВ - юго-восточный, Ю - южный, ЮЗ - юго-западный, З - западный, СЗ - северо-западный.
Видимость - горизонтальная дальность видимости в метрах или километрах. При видимости от 1 до 10 км при отсутствии осадков обычно наблюдается дымка, при ухудшении видимости до 1 км и менее - туман. В сухую погоду видимость может ухудшаться дымом, пылью или мглою.
Явления - указаны атмосферные явления, наблюдавшиеся в срок или в последний час перед сроком; фигурными скобками обозначены явления, наблюдавшиеся между сроками (за 1-3 часа до срока); квадратными скобками обозначены град или гололедные отложения с указанием их диаметра в мм.
Облачность - указаны через наклонную черту общая и нижняя облачность в баллах и высота нижней границы облаков в метрах; квадратными скобками обозначены формы облаков: Ci - перистые, Cs - перисто-слоистые, Cc - перисто-кучевые, Ac - высококучевые, As - высокослоистые, Sc - слоисто-кучевые, Ns - слоисто-дождевые, Cu - кучевые, Cb - кучево-дождевые. Подробнее классификацию облаков см. в Атласе облаков (PDF).
T - Температура воздуха - температура, измеренная на высоте 2 м над землей.
Td - Температура точки росы - температура, при понижении до которой содержащийся в воздухе водяной пар достигнет насыщения.
f - Относительная влажность воздуха - влажноcть воздуха, измеренная на высоте 2 м над землей.
Te - Эффективная температура - температура, которую ощущает одетый по сезону человек в тени. Характеристика душности погоды. При расчете учитывается влияние влажности воздуха и скорости ветра на теплоощущения человека.
Tes - Эффективная температура на солнце - температура, которую ощущает человек, с поправкой на солнечный нагрев. Характеристика знойности погоды. Зависит от высоты солнца над горизонтом, облачности и скорости ветра. Ночью, в пасмурную погоду, а также при ветре 12 м/с и более поправка равна нулю.
P - Атмосферное давление - приведенное к уровню моря атмосферное давление.
Po - Атмосферное давление - измеренное на уровне метеостанции атмосферное давление.
Tmin - Минимальная температура - минимум температуры воздуха на высоте 2 м над землей.
Tmax - Максимальная температура - максимум температуры воздуха на высоте 2 м над землей.
R - Количество осадков - Количество выпавших осадков за период времени, мм. При наведении курсора мыши на число - период времени, за который выпало указанное количество осадков.
R24 - Количество осадков - Количество выпавших осадков за 24 часа, мм.
S - Снежный покров - Высота снежного покрова, см. При наведении курсора мыши на число - состояние снежного покрова и степень покрытия местности в баллах.